STARLINK-6065, 56812

Orbit data source: Space-Track

STARLINK-6065, 56812 is a payload satellite owned by SpaceX/Seattle (US) in LEO that was launched on Wed, 31 May 2023 UTC via an FALCON 9 launch vehicle from the Air Force Western Test Range (AFWTR). Payload-class satellites include a variety of spacecraft equipped with specific instruments for various scientific and technological missions. These include communications satellites like Starlink; space stations such as the ISS; scientific satellites like the Hubble; Earth observation satellites from companies like Planet Labs, Umbra, and HawkEye 360; GPS; miniature CubeSats for education and research; and military/defense satellites.

Loading next visibility...
Identifier
56812, 2023-078AX
Orbit
LEO
Country
Flag of USUS
Related business
Manufacturer
SpaceX/Seattle
Mission
Operational Commercial Communications
Bus & Motor
STARLINK, Unknown motor
Mass
305 kg wet, ~290 kg dry
Launch date (UTC)
2023-05-31 (3 years ago)
Launch vehicle
FALCON 9
Launch site
Air Force Western Test Range (AFWTR)
Object type
Payload
Rocket body
Debris
Shape & HBR
Box + 1 Pan, 10.1 m
Radar Cross Section
11.087 m², Large (>1 m²)

Expand to show TLE details & history
Last TLE update: 2 days ago

TLE from 2 days ago
0 STARLINK-6065
1 56812U 23078AX  26171.41425682 -.00003926  00000-0 -32142-3 0  9998
2 56812  70.0003  65.3378 0003175 272.4679  87.6116 14.98332661168567
Epoch: 2026-06-20T09:56Z
TLE epoch observation values (Epoch: 2026-06-20T09:56:31.789Z)
Latitude
-0.00006°
Longitude
7.5761°
Altitude
574.38 km
Speed
7.574 km/s
True Right ascension
04h 21m 21s
True Declination
0° 00' 00"
Sunlit
Object was in daylight at epoch
Visualization orbit readout
Latitude
Unknown
Longitude
Unknown
Altitude
Unknown
Speed
Unknown
Apparent Right ascension
Unknown
Apparent Declination
Unknown
Sunlit
N/A
Visualization observer readout
Local Sidereal Time
21:33:33
Azimuth
Unknown
Elevation
Unknown
Doppler factor
Unknown
Orbital elements
Apogee altitude
572.202 km
Perigee altitude
567.79 km
Semi-major axis
6,948.133 km
Eccentricity
0.00032
Inclination
70.0003°
RAAN
65.3378°
Arg. of periapsis
272.4679°
True anomaly
87.64795°
Mean anomaly
87.6116°
Eccentric anomaly
87.62978°
Mean motion
3.74749 °/min
Orbital period
96.06 mins
BSTAR
-0.00032142
Loading maneuver chart data...
Computing Atmospheric mass density...
Loading historical data...
Loading historical data...
Loading historical data...
Loading historical data...
Loading historical data...
Loading historical data...
Loading historical data...

Documentation

Showing up to 5 results
|